Preview of NWS' New Version of Forecast
This preview is not operational and should not be used for support decisions.

Regional Weather Roundup (RWR)

Issued by Philadelphia/Mt Holly (PHI)

                            
000
ASUS41 KPHI 180212
RWRPHI

REGIONAL WEATHER ROUNDUP
NATIONAL WEATHER SERVICE MOUNT HOLLY NJ
1000 PM EDT TUE SEP 17 2019

NOTE:  "FAIR" INDICATES FEW OR NO CLOUDS BELOW 12,000 FEET WITH NO
SIGNIFICANT WEATHER AND/OR OBSTRUCTIONS TO VISIBILITY.

 * = STATION DOES NOT REPORT PRECIPITATION (E.G. RAIN, SNOW, ETC.) 
        OR FOG.

NJZ015>026-180300-
SOUTHERN NEW JERSEY
  
CITY           SKY/WX    TMP DP  RH WIND       PRES   REMARKS
POMONA         FAIR      59  53  80 CALM      30.13R                  
WILDWOOD*      FAIR      58  53  84 CALM      30.13S                  
MILLVILLE      FAIR      56  51  84 CALM      30.13S                  
WRIGHTSTOWN    FAIR      60  52  75 CALM      30.14R                  
MOUNT HOLLY    FAIR      59  54  83 CALM      30.13S                  
TRENTON        FAIR      62  47  57 CALM      30.14R                  

$$
NJZ001>014-180300-
NORTHERN NEW JERSEY
  
CITY           SKY/WX    TMP DP  RH WIND       PRES   REMARKS
SUSSEX         FAIR      54  49  83 CALM      30.18R                  
ANDOVER*         N/A     55  53  93 CALM      30.17R                  
MORRISTOWN     CLEAR     54  52  94 CALM      30.16R                  
NEWARK         FAIR      70  47  43 E5        30.14R                  
TETERBORO      FAIR      66  43  43 N3        30.14R                  
CALDWELL       FAIR      62  45  53 CALM      30.16R                  
SOMERVILLE     FAIR      56  52  86 NW3       30.13R                  
ALLAIRE*       FAIR      61  52  72 E3        30.15S                  
TOMS RIVER*    FAIR      54  32  43 CALM      30.14S                  

$$
PAZ043-044-047-054-055-060>062-066>071-180300-
EASTERN PENNSYLVANIA
  
CITY           SKY/WX    TMP DP  RH WIND       PRES   REMARKS
PHILADELPHIA   FAIR      67  52  58 CALM      30.14R                  
NORTH PHILA    FAIR      64  50  60 E3        30.15R                  
BLUE BELL*     FAIR      54  52  92 CALM      30.15R                  
DOYLESTOWN     FAIR      59  51  75 CALM      30.14R                  
QUAKERTOWN*    CLEAR     57  54  88 CALM      30.16                   
PERKASIE*      FAIR      54  54 100 CALM      30.16S                  
POTTSTOWN      FAIR      57  53  86 CALM      30.16R                  
LANCASTER      FAIR      65  50  58 NE5       30.14R                  
COATESVILLE    FAIR      61  54  77 CALM      30.16S                  
WEST CHESTER   FAIR      63  52  67 CALM      30.14S                  
READING        FAIR      66  51  58 CALM      30.13R                  
ALLENTOWN      FAIR      62  46  55 N3        30.15R                  
QN CITY/ALNTWN FAIR      61  54  77 CALM      30.16S                  
MOUNT POCONO   FAIR      55  43  63 N7        30.20R                  
HAZLETON       FAIR      63  45  51 N5        30.22S                  
LEHIGHTON      FAIR      50  50 100 CALM      30.17S                  
WILKES BARRE   FAIR      58  46  64 E7        30.18S                  

$$
DEZALL-MDZ008-012-015-019-020-180300-
DELAWARE AND EASTERN MARYLAND
  
CITY           SKY/WX    TMP DP  RH WIND       PRES   REMARKS
WILMINGTON     FAIR      67  55  65 E7        30.14R                  
DOVER          FAIR      63  53  67 CALM      30.12S                  
CHESWOLD       CLEAR     59  55  88 CALM      30.13S                  
GEORGETOWN     FAIR      59  56  89 CALM      30.12F                  
EASTON         FAIR      65  55  69 CALM      30.16R                  
STEVENSVILLE   FAIR      68  55  64 SE8       30.12S                  
PATUXENT       FAIR      69  56  62 E9        30.11                   
OCEAN CITY     FAIR      68  52  56 E8        30.11S                  
WALLOPS ISLAND FAIR      67  52  58 E12       30.11S                  
CAMBRIDGE      CLEAR     61  55  82 CALM      30.12S                  
SALISBURY      FAIR      60  54  80 CALM      30.11S                  

$$
PAZ001-021-NYZ056-072-MDZ011-DCZ001-180300-
OTHER NEARBY LOCATIONS
  
CITY           SKY/WX    TMP DP  RH WIND       PRES   REMARKS
HARRISBURG     FAIR      63  50  62 NW3       30.14R                  
STATE COLLEGE  CLEAR     63  50  63 NE7       30.19R                  
WILLIAMSPORT   FAIR      60  51  72 SW3       30.17R                  
BINGHAMTON     FAIR      56  46  69 N9        30.21R                  
NEW YORK CITY  FAIR      66  46  48 CALM      30.17R                  
BALTIMORE      FAIR      71  56  58 SE5       30.11S                  
WASHINGTON DC  FAIR      73  58  59 N3        30.12R                  

$$